• In Deutschland
  • Länderverzeichnis
  • Für 7 Tage
  • Wassertemperatur
  • Satellitenkarten
  • Wetterkarte
  • Widgets
  • user-avatar
    Anmelden

    Stündliche Wetter Karpisonovka

    Heute, 16 August, Donnerstag

    Zeit Temperatur Niederschläge Wind Luftdruck Luftfeuchtigkeit
    00:00 +18°C° 0 mm 2 m/S 744 mmHg 90%
    01:00 +18°C° 0 mm 2 m/S 744 mmHg 92%
    02:00 +17°C° 0 mm 2 m/S 744 mmHg 95%
    03:00 +17°C° 0,1 mm 2 m/S 744 mmHg 95%
    04:00 +18°C° 0,1 mm 1 m/S 745 mmHg 95%
    05:00 +16°C° 0,1 mm 1 m/S 745 mmHg 96%
    06:00 +19°C° 0,1 mm 1 m/S 745 mmHg 92%
    07:00 +20°C° 0,1 mm 1 m/S 745 mmHg 88%
    08:00 +20°C° 0,1 mm 2 m/S 746 mmHg 84%
    09:00 +21°C° 0,4 mm 2 m/S 746 mmHg 80%
    10:00 +23°C° 0,4 mm 2 m/S 746 mmHg 76%
    11:00 +25°C° 0,4 mm 2 m/S 746 mmHg 72%
    12:00 +25°C° 0,8 mm 2 m/S 746 mmHg 72%
    13:00 +25°C° 0,8 mm 2 m/S 746 mmHg 72%
    14:00 +25°C° 0,8 mm 2 m/S 746 mmHg 72%
    15:00 +25°C° 0,5 mm 2 m/S 746 mmHg 74%
    16:00 +24°C° 0,5 mm 2 m/S 746 mmHg 75%
    17:00 +24°C° 0,5 mm 2 m/S 746 mmHg 77%
    18:00 +23°C° 0,1 mm 2 m/S 746 mmHg 82%
    19:00 +20°C° 0,1 mm 2 m/S 746 mmHg 88%
    20:00 +19°C° 0,1 mm 2 m/S 746 mmHg 93%
    21:00 +18°C° 0 mm 2 m/S 747 mmHg 94%
    22:00 +18°C° 0 mm 2 m/S 747 mmHg 95%
    23:00 +17°C° 0 mm 2 m/S 747 mmHg 96%

    Morgen, 17 August, Freitag

    Zeit Temperatur Niederschläge Wind Luftdruck Luftfeuchtigkeit
    00:00 +17°C° 0 mm 2 m/S 747 mmHg 96%
    01:00 +17°C° 0 mm 2 m/S 747 mmHg 96%
    02:00 +16°C° 0 mm 2 m/S 747 mmHg 97%
    03:00 +16°C° 0 mm 2 m/S 747 mmHg 97%
    04:00 +16°C° 0 mm 2 m/S 748 mmHg 97%
    05:00 +16°C° 0 mm 2 m/S 748 mmHg 97%
    06:00 +17°C° 0 mm 3 m/S 748 mmHg 94%
    07:00 +18°C° 0 mm 3 m/S 748 mmHg 91%
    08:00 +19°C° 0 mm 3 m/S 748 mmHg 88%
    09:00 +21°C° 0 mm 3 m/S 748 mmHg 83%
    10:00 +22°C° 0 mm 3 m/S 748 mmHg 77%
    11:00 +25°C° 0 mm 3 m/S 748 mmHg 72%
    12:00 +25°C° 0,2 mm 4 m/S 748 mmHg 70%
    13:00 +26°C° 0,2 mm 4 m/S 748 mmHg 69%
    14:00 +26°C° 0,2 mm 4 m/S 747 mmHg 68%
    15:00 +26°C° 0,4 mm 4 m/S 747 mmHg 70%
    16:00 +25°C° 0,4 mm 3 m/S 747 mmHg 73%
    17:00 +25°C° 0,4 mm 3 m/S 747 mmHg 75%
    18:00 +22°C° 0,1 mm 3 m/S 747 mmHg 80%
    19:00 +21°C° 0,1 mm 3 m/S 747 mmHg 84%
    20:00 +19°C° 0,1 mm 3 m/S 747 mmHg 88%
    21:00 +19°C° 0 mm 3 m/S 747 mmHg 89%
    22:00 +18°C° 0 mm 3 m/S 747 mmHg 89%
    23:00 +18°C° 0 mm 3 m/S 747 mmHg 89%

    übermorgen, 18 August, Samstag

    Zeit Temperatur Niederschläge Wind Luftdruck Luftfeuchtigkeit
    00:00 +17°C° 0 mm 3 m/S 747 mmHg 90%
    01:00 +17°C° 0 mm 3 m/S 747 mmHg 90%
    02:00 +16°C° 0 mm 3 m/S 747 mmHg 91%
    03:00 +16°C° 0 mm 3 m/S 747 mmHg 92%
    04:00 +16°C° 0 mm 3 m/S 747 mmHg 92%
    05:00 +16°C° 0 mm 3 m/S 747 mmHg 93%
    06:00 +17°C° 0 mm 3 m/S 748 mmHg 89%
    07:00 +18°C° 0 mm 4 m/S 748 mmHg 85%
    08:00 +19°C° 0 mm 4 m/S 748 mmHg 82%
    09:00 +21°C° 0,1 mm 4 m/S 748 mmHg 78%
    10:00 +22°C° 0,1 mm 5 m/S 748 mmHg 74%
    11:00 +25°C° 0,1 mm 5 m/S 747 mmHg 71%
    12:00 +25°C° 0,5 mm 5 m/S 747 mmHg 70%
    13:00 +25°C° 0,5 mm 5 m/S 747 mmHg 70%
    14:00 +26°C° 0,5 mm 5 m/S 747 mmHg 69%
    15:00 +25°C° 0,9 mm 4 m/S 747 mmHg 74%
    16:00 +23°C° 0,9 mm 4 m/S 747 mmHg 78%
    17:00 +22°C° 0,9 mm 3 m/S 747 mmHg 82%
    18:00 +21°C° 0,4 mm 3 m/S 747 mmHg 85%
    19:00 +20°C° 0,4 mm 3 m/S 747 mmHg 88%
    20:00 +19°C° 0,4 mm 3 m/S 747 mmHg 91%
    21:00 +19°C° 0 mm 3 m/S 747 mmHg 92%
    22:00 +19°C° 0 mm 3 m/S 747 mmHg 93%
    23:00 +18°C° 0 mm 3 m/S 746 mmHg 94%

    19 August, Sonntag

    Zeit Temperatur Niederschläge Wind Luftdruck Luftfeuchtigkeit
    00:00 +18°C° 0 mm 3 m/S 746 mmHg 94%
    01:00 +18°C° 0 mm 3 m/S 746 mmHg 95%
    02:00 +17°C° 0 mm 3 m/S 746 mmHg 96%
    03:00 +17°C° 0 mm 2 m/S 746 mmHg 96%
    04:00 +17°C° 0 mm 2 m/S 746 mmHg 96%
    05:00 +17°C° 0 mm 2 m/S 746 mmHg 96%
    06:00 +18°C° 0 mm 2 m/S 746 mmHg 94%
    07:00 +19°C° 0 mm 2 m/S 746 mmHg 91%
    08:00 +20°C° 0 mm 2 m/S 747 mmHg 89%
    09:00 +21°C° 0,4 mm 2 m/S 746 mmHg 84%
    10:00 +24°C° 0,4 mm 2 m/S 746 mmHg 79%
    11:00 +25°C° 0,4 mm 2 m/S 746 mmHg 73%
    12:00 +26°C° 0,3 mm 2 m/S 746 mmHg 70%
    13:00 +26°C° 0,3 mm 2 m/S 746 mmHg 66%
    14:00 +27°C° 0,3 mm 2 m/S 746 mmHg 63%
    15:00 +26°C° 0,7 mm 2 m/S 746 mmHg 67%
    16:00 +26°C° 0,7 mm 2 m/S 745 mmHg 70%
    17:00 +26°C° 0,7 mm 2 m/S 745 mmHg 74%
    18:00 +24°C° 0,3 mm 2 m/S 745 mmHg 77%
    19:00 +21°C° 0,3 mm 2 m/S 745 mmHg 81%
    20:00 +21°C° 0,3 mm 1 m/S 745 mmHg 85%
    21:00 +20°C° 0 mm 1 m/S 745 mmHg 86%
    22:00 +20°C° 0 mm 1 m/S 745 mmHg 88%
    23:00 +19°C° 0 mm 1 m/S 745 mmHg 90%

    20 August, Montag

    Zeit Temperatur Niederschläge Wind Luftdruck Luftfeuchtigkeit
    00:00 +19°C° 0 mm 1 m/S 745 mmHg 91%
    01:00 +19°C° 0 mm 1 m/S 745 mmHg 92%
    02:00 +17°C° 0 mm 2 m/S 745 mmHg 93%
    03:00 +17°C° 0 mm 2 m/S 745 mmHg 93%
    04:00 +17°C° 0 mm 2 m/S 745 mmHg 93%
    05:00 +18°C° 0 mm 1 m/S 746 mmHg 94%
    06:00 +18°C° 0 mm 2 m/S 746 mmHg 91%
    07:00 +19°C° 0 mm 2 m/S 746 mmHg 88%
    08:00 +20°C° 0 mm 2 m/S 746 mmHg 85%
    09:00 +21°C° 0 mm 2 m/S 746 mmHg 79%
    10:00 +23°C° 0 mm 2 m/S 746 mmHg 73%
    11:00 +24°C° 0 mm 3 m/S 746 mmHg 68%
    12:00 +24°C° 0 mm 2 m/S 746 mmHg 65%
    13:00 +25°C° 0 mm 2 m/S 746 mmHg 63%
    14:00 +25°C° 0 mm 2 m/S 746 mmHg 61%
    15:00 +25°C° 0,1 mm 2 m/S 746 mmHg 65%
    16:00 +24°C° 0,1 mm 2 m/S 746 mmHg 70%
    17:00 +23°C° 0,1 mm 2 m/S 746 mmHg 74%
    18:00 +21°C° 0 mm 2 m/S 746 mmHg 78%
    19:00 +21°C° 0 mm 1 m/S 746 mmHg 83%
    20:00 +19°C° 0 mm 1 m/S 746 mmHg 87%
    21:00 +19°C° 0 mm 1 m/S 746 mmHg 88%
    22:00 +18°C° 0 mm 1 m/S 746 mmHg 89%
    23:00 +18°C° 0 mm 1 m/S 746 mmHg 90%

    21 August, Dienstag

    Zeit Temperatur Niederschläge Wind Luftdruck Luftfeuchtigkeit
    00:00 +16°C° 0 mm 1 m/S 746 mmHg 91%
    01:00 +16°C° 0 mm 1 m/S 746 mmHg 92%
    02:00 +16°C° 0 mm 1 m/S 746 mmHg 92%
    03:00 +15°C° 0 mm 1 m/S 746 mmHg 93%
    04:00 +15°C° 0 mm 1 m/S 746 mmHg 93%
    05:00 +15°C° 0 mm 1 m/S 746 mmHg 94%
    06:00 +17°C° 0 mm 2 m/S 746 mmHg 90%
    07:00 +18°C° 0 mm 2 m/S 746 mmHg 86%
    08:00 +20°C° 0 mm 3 m/S 746 mmHg 82%
    09:00 +21°C° 0 mm 3 m/S 746 mmHg 77%
    10:00 +24°C° 0 mm 3 m/S 746 mmHg 72%
    11:00 +25°C° 0 mm 4 m/S 746 mmHg 66%
    12:00 +26°C° 0,1 mm 4 m/S 745 mmHg 65%
    13:00 +26°C° 0,1 mm 5 m/S 745 mmHg 64%
    14:00 +27°C° 0,1 mm 5 m/S 745 mmHg 62%
    15:00 +26°C° 0,3 mm 4 m/S 745 mmHg 66%
    16:00 +26°C° 0,3 mm 4 m/S 745 mmHg 70%
    17:00 +26°C° 0,3 mm 3 m/S 744 mmHg 74%
    18:00 +24°C° 0,2 mm 3 m/S 744 mmHg 77%
    19:00 +22°C° 0,2 mm 3 m/S 745 mmHg 81%
    20:00 +20°C° 0,2 mm 3 m/S 745 mmHg 84%
    21:00 +20°C° 0 mm 3 m/S 745 mmHg 86%
    22:00 +19°C° 0 mm 2 m/S 745 mmHg 88%
    23:00 +19°C° 0 mm 2 m/S 745 mmHg 89%
    Mehr zeigen